Regional Weather Roundup
Issued by NWS State College, PA

Home | Current Version | Previous Version | Graphics & Text | Print | Product List | Glossary Off
Versions: 1 2 3 4 5 6 7 8 9 10 11 12 13 14 15 16 17 18 19 20 21 22 23 24 25 26 27 28 29 30 31 32 33 34 35 36 37 38 39 40 41 42 43 44 45 46 47 48 49 50

000
ASUS41 KCTP 111403
RWRCTP

REGIONAL WEATHER ROUNDUP
NATIONAL WEATHER SERVICE STATE COLLEGE PA
900 AM EST THU FEB 11 2016

Note: "fair" indicates few or no clouds below 12,000 feet with no
significant weather and/or obstructions to visibility.

* = STATION THAT DOES NOT REPORT PRECIPITATION /E.G. RAIN...SNOW...ETC/
    THUNDER OR FOG.

PAZ002>004-007>009-013>016-020>023-029>032-111500-
WESTERN PENNSYLVANIA

CITY           SKY/WX    TMP DP  RH WIND       PRES   REMARKS
ERIE           LGT SNOW  16   6  65 NW15G23   30.04R WCI   1
MEADVILLE      LGT SNOW  11   5  77 W10       30.00R VSB 1   WCI  -3
FRANKLIN*      CLOUDY    10   1  67 W14       30.01R WCI  -5
NEW CASTLE     FLURRIES  13   7  77 W12       30.08R WCI  -1
BEAVER COUNTY  LGT SNOW  12   7  79 W9        30.07R WCI   0
BUTLER*        PTSUNNY   12   3  67 W8        30.09R WCI   1
PITTSBURGH INT MOSUNNY   12   4  70 W10       30.08R WCI  -1
PITTSBURGH     LGT SNOW  13   6  74 W14       30.08R WCI  -2
INDIANA*       CLOUDY    12   5  73 W14G25    30.04R HAZE    WCI  -3
LATROBE        LGT SNOW  12   9  85 W12G23    30.08R VSB 3/4 WCI  -2
WASHINGTON CO* MOSUNNY   12   3  67 W7        30.11R WCI   2
$$

PAZ004>006-010>012-017>019-024>028-033>037-041-042-045-046-049>053-111500-
CENTRAL PENNSYLVANIA

CITY           SKY/WX    TMP DP  RH WIND       PRES   REMARKS
BRADFORD       LGT SNOW   8   1  73 W14G23    29.84R VSB 1   WCI  -8
DUBOIS         MOSUNNY    8   0  69 W14       29.91R WCI  -8
CLEARFIELD     SUNNY     12   1  61 W14G23    29.94R WCI  -3
JOHNSTOWN      CLOUDY     8   0  69 W16G32    29.91R BLWGSNOWWCI -10
ALTOONA        PTSUNNY   13   1  59 W17G24    29.98R WCI  -4
STATE COLLEGE  MOSUNNY   12   0  57 W18       29.97R WCI  -5
WILLIAMSPORT   MOSUNNY   19   1  45 W16G24    29.95R WCI   4
SELINSGROVE    SUNNY     18   0  45 W14G23    30.00R WCI   4
FT INDIANTOWN  MOSUNNY   18   0  45 W14G24    29.99R WCI   4
CAPITAL CITY   MOSUNNY   20  -1  40 NW22G30   30.03R WCI   3
HARRISBURG     MOSUNNY   20   5  52 W24G38    30.02R WCI   3
YORK           LGT SNOW  17  11  77 NW14G21   30.03R WCI   3
$$

PAZ038>040-043-044-047-048-054-055-060>062-067>071-111500-
EASTERN PENNSYLVANIA

CITY           SKY/WX    TMP DP  RH WIND       PRES   REMARKS
SCRANTON       MOSUNNY   15   1  53 W14G23    29.87R WCI   0
MOUNT POCONO   MOSUNNY   12  -2  53 W17G28    29.76R WCI  -5
ALLENTOWN      LGT SNOW  19  10  68 W8        29.94R WCI   9
QUAKERTOWN*    MOSUNNY   19  12  73 W6        29.95  WCI  11
READING        MOSUNNY   19   3  49 W25G36    29.97R WCI   1
LANCASTER      FLURRIES  17  10  74 W14       30.00R WCI   3
COATESVILLE    PTSUNNY   18   7  62 W14       29.98R WCI   4
POTTSTOWN      MOSUNNY   19  13  77 W5        29.98R WCI  12
BLUE BELL        N/A     19  14  79 W5        29.97R WCI  13
DOYLESTOWN     FLURRIES  18  10  71 W8G21     29.95R WCI   8
WILLOW GROVE   NOT AVBL
NORTH PHILA    SNOW      20  16  84 W12       30.01R VSB 1/4 WCI   8
PHILADELPHIA   MOSUNNY   23   5  46 W17G31    30.02R WCI   9
$$



USA.gov is the U.S. government's official web portal to all federal, state and local government web resources and services.